DLH1785 EDDF-EGKK

Flight info

Callsign DLH1785
Flight time 1h 8m
Altitude 34000
Route SOBRA2L/18 SOBRA Y180 RUDOT DCT DENUT L610 TEBRA
Aircraft A21N/M-SDE2E3FGHIRWXY/LB1

Departure

Time 2026-05-06 18:36
Airport Frankfurt Main Airport (EDDF)

Arrival

Time 2026-05-06 19:44
Airport London Gatwick Airport (EGKK)
Time Latitude Longitude Altitude Speed Heading
2026-05-06 18:15 50.04735 8.56736 338 ft 0 kts 117°
2026-05-06 18:25 50.04739 8.56726 364 ft 7 kts 117°
2026-05-06 18:25 50.04759 8.56673 365 ft 2 kts 155°
2026-05-06 18:25 50.04775 8.56669 362 ft 2 kts 204°
2026-05-06 18:26 50.04786 8.56677 362 ft 2 kts 207°
2026-05-06 18:26 50.04791 8.56681 362 ft 0 kts 208°
2026-05-06 18:29 50.04789 8.56680 362 ft 2 kts 208°
2026-05-06 18:29 50.04750 8.56640 362 ft 10 kts 221°
2026-05-06 18:29 50.04704 8.56553 361 ft 11 kts 231°
2026-05-06 18:29 50.04664 8.56423 363 ft 16 kts 250°
2026-05-06 18:30 50.04623 8.56249 364 ft 17 kts 250°
2026-05-06 18:30 50.04585 8.56089 367 ft 16 kts 249°
2026-05-06 18:30 50.04514 8.55954 359 ft 18 kts 199°
2026-05-06 18:30 50.04395 8.55911 356 ft 17 kts 178°
2026-05-06 18:31 50.04289 8.55961 357 ft 14 kts 167°
2026-05-06 18:31 50.04226 8.55863 361 ft 12 kts 265°
2026-05-06 18:31 50.04203 8.55778 357 ft 11 kts 248°
2026-05-06 18:31 50.04165 8.55633 362 ft 19 kts 248°
2026-05-06 18:32 50.04110 8.55396 361 ft 27 kts 250°
2026-05-06 18:32 50.04064 8.55201 358 ft 23 kts 250°
2026-05-06 18:32 50.04012 8.54987 354 ft 19 kts 249°
2026-05-06 18:32 50.03972 8.54827 357 ft 19 kts 249°
2026-05-06 18:33 50.03927 8.54633 351 ft 23 kts 250°
2026-05-06 18:33 50.03876 8.54420 353 ft 19 kts 250°
2026-05-06 18:33 50.03819 8.54272 349 ft 16 kts 235°
2026-05-06 18:33 50.03773 8.54061 351 ft 25 kts 249°
2026-05-06 18:34 50.03690 8.53762 336 ft 31 kts 249°
2026-05-06 18:34 50.03615 8.53461 336 ft 31 kts 249°
2026-05-06 18:34 50.03542 8.53156 336 ft 30 kts 250°
2026-05-06 18:34 50.03499 8.52977 346 ft 27 kts 250°
2026-05-06 18:35 50.03433 8.52729 359 ft 22 kts 247°
2026-05-06 18:35 50.03351 8.52598 350 ft 15 kts 191°
2026-05-06 18:35 50.03104 8.52599 344 ft 72 kts 180°
2026-05-06 18:35 50.02347 8.52604 355 ft 144 kts 180°
2026-05-06 18:36 50.01149 8.52607 675 ft 186 kts 182°
2026-05-06 18:36 49.99889 8.52688 1807 ft 175 kts 178°
2026-05-06 18:36 49.98639 8.52822 2713 ft 187 kts 182°
2026-05-06 18:36 49.97282 8.52871 3167 ft 210 kts 182°
2026-05-06 18:37 49.95729 8.52954 3723 ft 232 kts 181°
2026-05-06 18:37 49.94070 8.53071 4229 ft 244 kts 181°
2026-05-06 18:37 49.92420 8.53182 4207 ft 234 kts 181°
2026-05-06 18:37 49.90770 8.53281 4206 ft 232 kts 181°
2026-05-06 18:38 49.89180 8.53380 4206 ft 234 kts 181°
2026-05-06 18:38 49.87572 8.53446 4204 ft 231 kts 186°
2026-05-06 18:38 49.85936 8.52768 4192 ft 245 kts 204°
2026-05-06 18:38 49.84314 8.51758 4216 ft 262 kts 204°
2026-05-06 18:39 49.82630 8.50795 4208 ft 260 kts 202°
2026-05-06 18:39 49.80897 8.49852 4209 ft 259 kts 202°
2026-05-06 18:39 49.79173 8.48884 4273 ft 271 kts 203°
2026-05-06 18:40 49.76446 8.45468 6700 ft 256 kts 245°
2026-05-06 18:40 49.75953 8.42791 7682 ft 262 kts 267°
2026-05-06 18:40 49.76146 8.40027 8722 ft 265 kts 283°
2026-05-06 18:40 49.76615 8.37228 9685 ft 271 kts 284°
2026-05-06 18:41 49.77090 8.34343 10659 ft 275 kts 283°
2026-05-06 18:41 49.77536 8.31547 11385 ft 288 kts 283°
2026-05-06 18:41 49.78036 8.28425 11898 ft 308 kts 283°
2026-05-06 18:41 49.78574 8.25093 12401 ft 328 kts 283°
2026-05-06 18:42 49.79130 8.21636 13222 ft 336 kts 283°
2026-05-06 18:42 49.79688 8.18136 14373 ft 332 kts 283°
2026-05-06 18:42 49.80254 8.14595 15158 ft 340 kts 283°
2026-05-06 18:42 49.80819 8.11049 15984 ft 344 kts 283°
2026-05-06 18:43 49.81395 8.07424 16819 ft 349 kts 283°
2026-05-06 18:43 49.81975 8.03758 17591 ft 353 kts 283°
2026-05-06 18:43 49.82568 8.00014 18341 ft 358 kts 283°
2026-05-06 18:43 49.83153 7.96302 19056 ft 362 kts 283°
2026-05-06 18:44 49.83751 7.92488 19750 ft 366 kts 283°
2026-05-06 18:44 49.84355 7.88636 20430 ft 370 kts 283°
2026-05-06 18:44 49.84967 7.84747 21101 ft 374 kts 283°
2026-05-06 18:44 49.85585 7.80823 21724 ft 378 kts 283°
2026-05-06 18:45 49.86177 7.77050 22293 ft 382 kts 283°
2026-05-06 18:45 49.86821 7.72925 22894 ft 386 kts 283°
2026-05-06 18:45 49.87455 7.68849 23462 ft 390 kts 283°
2026-05-06 18:45 49.87889 7.66055 23841 ft 393 kts 283°
2026-05-06 18:46 49.88737 7.60562 24567 ft 397 kts 283°
2026-05-06 18:46 49.89385 7.56363 25074 ft 402 kts 283°
2026-05-06 18:46 49.90034 7.52142 25615 ft 404 kts 283°
2026-05-06 18:46 49.90687 7.47884 26147 ft 407 kts 283°
2026-05-06 18:47 49.91344 7.43587 26626 ft 411 kts 283°
2026-05-06 18:47 49.92006 7.39249 27083 ft 414 kts 283°
2026-05-06 18:47 49.92672 7.34874 27553 ft 417 kts 283°
2026-05-06 18:47 49.93338 7.30482 27994 ft 421 kts 283°
2026-05-06 18:48 49.94017 7.25995 28072 ft 434 kts 283°
2026-05-06 18:48 49.94717 7.21352 28087 ft 448 kts 283°
2026-05-06 18:48 49.95425 7.16649 28219 ft 458 kts 283°
2026-05-06 18:48 49.96145 7.11851 28904 ft 454 kts 282°
2026-05-06 18:49 49.96856 7.07097 29643 ft 449 kts 282°
2026-05-06 18:49 49.97562 7.02358 30173 ft 449 kts 282°
2026-05-06 18:49 49.98268 6.97614 30683 ft 449 kts 282°
2026-05-06 18:49 49.98970 6.92945 31188 ft 448 kts 284°
2026-05-06 18:50 50.00136 6.88477 31691 ft 447 kts 299°
2026-05-06 18:50 50.01789 6.84312 32047 ft 451 kts 301°
2026-05-06 18:50 50.03500 6.80177 31996 ft 460 kts 302°
2026-05-06 18:51 50.06727 6.71424 32007 ft 475 kts 295°
2026-05-06 18:51 50.09795 6.62245 32011 ft 479 kts 299°
2026-05-06 18:52 50.13050 6.53231 32004 ft 479 kts 297°
2026-05-06 18:52 50.16167 6.44035 32004 ft 479 kts 298°
2026-05-06 18:53 50.19373 6.34937 32002 ft 479 kts 297°
2026-05-06 18:53 50.22507 6.25754 32001 ft 479 kts 297°
2026-05-06 18:54 50.25680 6.16589 32000 ft 480 kts 297°
2026-05-06 18:54 50.28823 6.07380 31999 ft 479 kts 297°
2026-05-06 18:55 50.31968 5.98188 31998 ft 479 kts 297°
2026-05-06 18:55 50.35099 5.88972 31999 ft 478 kts 297°
2026-05-06 18:56 50.38221 5.79768 31998 ft 478 kts 297°
2026-05-06 18:56 50.41324 5.70574 31996 ft 478 kts 297°
2026-05-06 18:57 50.44432 5.61340 31996 ft 478 kts 297°
2026-05-06 18:57 50.47510 5.52159 31997 ft 477 kts 297°
2026-05-06 18:58 50.50596 5.42917 31998 ft 478 kts 297°
2026-05-06 18:58 50.53662 5.33706 31999 ft 478 kts 297°
2026-05-06 18:59 50.56734 5.24439 31989 ft 477 kts 296°
2026-05-06 18:59 50.59795 5.15173 31997 ft 477 kts 296°
2026-05-06 19:00 50.62851 5.05888 31998 ft 477 kts 296°
2026-05-06 19:00 50.65407 4.98096 31999 ft 478 kts 296°
2026-05-06 19:01 50.68432 4.88842 31999 ft 478 kts 296°
2026-05-06 19:01 50.71461 4.79539 31997 ft 477 kts 296°
2026-05-06 19:02 50.74488 4.70208 31999 ft 477 kts 296°
2026-05-06 19:02 50.77500 4.60892 31998 ft 476 kts 296°
2026-05-06 19:03 50.80507 4.51551 31997 ft 477 kts 296°
2026-05-06 19:03 50.83423 4.42465 31999 ft 477 kts 296°
2026-05-06 19:04 50.86419 4.33092 31997 ft 477 kts 296°
2026-05-06 19:04 50.89399 4.23733 31997 ft 477 kts 296°
2026-05-06 19:05 50.92379 4.14339 31998 ft 477 kts 296°
2026-05-06 19:05 50.95347 4.04944 31997 ft 476 kts 296°
2026-05-06 19:06 50.98285 3.95612 31992 ft 475 kts 296°
2026-05-06 19:06 51.01224 3.86240 31997 ft 475 kts 295°
2026-05-06 19:07 51.04167 3.76820 31998 ft 475 kts 295°
2026-05-06 19:07 51.07101 3.67392 32001 ft 476 kts 295°
2026-05-06 19:08 51.10037 3.57923 32003 ft 477 kts 295°
2026-05-06 19:08 51.12959 3.48459 32003 ft 477 kts 295°
2026-05-06 19:09 51.15824 3.39150 31931 ft 447 kts 295°
2026-05-06 19:09 51.17175 3.34746 31201 ft 441 kts 295°
2026-05-06 19:09 51.18527 3.30324 30012 ft 447 kts 295°
2026-05-06 19:09 51.19889 3.25865 29101 ft 446 kts 295°
2026-05-06 19:10 51.21221 3.21506 28981 ft 434 kts 295°
2026-05-06 19:10 51.22559 3.17105 29009 ft 446 kts 295°
2026-05-06 19:10 51.23920 3.12628 29007 ft 449 kts 295°
2026-05-06 19:11 51.26649 3.03635 29006 ft 452 kts 295°
2026-05-06 19:11 51.29362 2.94646 29008 ft 452 kts 295°
2026-05-06 19:12 51.32087 2.85588 29007 ft 452 kts 295°
2026-05-06 19:12 51.34794 2.76513 29006 ft 452 kts 292°
2026-05-06 19:12 51.35682 2.71728 29020 ft 450 kts 281°
2026-05-06 19:13 51.36277 2.66805 28997 ft 451 kts 280°
2026-05-06 19:13 51.37477 2.56912 29000 ft 452 kts 281°
2026-05-06 19:14 51.38694 2.47059 29008 ft 455 kts 281°
2026-05-06 19:14 51.39913 2.37082 29006 ft 456 kts 281°
2026-05-06 19:14 51.40516 2.32128 28853 ft 446 kts 281°
2026-05-06 19:15 51.41108 2.27242 27518 ft 451 kts 281°
2026-05-06 19:15 51.41708 2.22293 26820 ft 444 kts 281°
2026-05-06 19:15 51.42274 2.17568 26789 ft 420 kts 280°
2026-05-06 19:15 51.42807 2.13123 26721 ft 391 kts 280°
2026-05-06 19:16 51.43313 2.08895 25929 ft 387 kts 280°
2026-05-06 19:16 51.43816 2.04675 25288 ft 384 kts 280°
2026-05-06 19:16 51.44310 2.00491 24714 ft 378 kts 280°
2026-05-06 19:16 51.44791 1.96430 24088 ft 375 kts 280°
2026-05-06 19:17 51.45283 1.92277 23462 ft 371 kts 280°
2026-05-06 19:17 51.45745 1.88333 22443 ft 362 kts 280°
2026-05-06 19:17 51.46215 1.84331 21289 ft 361 kts 280°
2026-05-06 19:17 51.46666 1.80467 20437 ft 353 kts 280°
2026-05-06 19:18 51.47109 1.76650 19371 ft 345 kts 280°
2026-05-06 19:18 51.47552 1.72864 18273 ft 344 kts 280°
2026-05-06 19:18 51.47984 1.69128 17467 ft 337 kts 280°
2026-05-06 19:18 51.48406 1.65459 16566 ft 330 kts 280°
2026-05-06 19:19 51.48686 1.61837 15499 ft 325 kts 267°
2026-05-06 19:19 51.48252 1.58320 14475 ft 324 kts 251°
2026-05-06 19:19 51.47461 1.54924 13983 ft 319 kts 250°
2026-05-06 19:19 51.46695 1.51642 14010 ft 318 kts 251°
2026-05-06 19:20 51.45935 1.48300 14006 ft 315 kts 251°
2026-05-06 19:20 51.45172 1.44975 14010 ft 320 kts 250°
2026-05-06 19:20 51.44254 1.41749 14012 ft 319 kts 239°
2026-05-06 19:20 51.42985 1.38843 14008 ft 321 kts 235°
2026-05-06 19:21 51.41678 1.35954 14003 ft 321 kts 237°
2026-05-06 19:21 51.40473 1.33051 14003 ft 320 kts 238°
2026-05-06 19:21 51.39254 1.30059 14008 ft 321 kts 238°
2026-05-06 19:21 51.38001 1.27104 14002 ft 321 kts 237°
2026-05-06 19:22 51.36739 1.24153 14002 ft 320 kts 237°
2026-05-06 19:22 51.35495 1.21202 14006 ft 320 kts 237°
2026-05-06 19:22 51.34248 1.18246 14011 ft 321 kts 237°
2026-05-06 19:22 51.32992 1.15286 14010 ft 322 kts 237°
2026-05-06 19:23 51.31734 1.12323 14013 ft 321 kts 237°
2026-05-06 19:23 51.30485 1.09378 14010 ft 321 kts 237°
2026-05-06 19:23 51.29230 1.06425 14013 ft 320 kts 237°
2026-05-06 19:23 51.27973 1.03477 14013 ft 320 kts 237°
2026-05-06 19:24 51.26717 1.00530 14007 ft 321 kts 237°
2026-05-06 19:24 51.25467 0.97595 14014 ft 320 kts 237°
2026-05-06 19:24 51.24219 0.94678 13735 ft 314 kts 237°
2026-05-06 19:24 51.22981 0.91780 12963 ft 318 kts 237°
2026-05-06 19:25 51.21754 0.88913 12467 ft 314 kts 237°
2026-05-06 19:25 51.20536 0.86077 11910 ft 311 kts 237°
2026-05-06 19:25 51.19316 0.83230 11346 ft 309 kts 237°
2026-05-06 19:25 51.18111 0.80421 10824 ft 306 kts 237°
2026-05-06 19:26 51.16912 0.77636 10294 ft 303 kts 237°
2026-05-06 19:26 51.15759 0.74957 10248 ft 283 kts 237°
2026-05-06 19:26 51.14667 0.72428 9911 ft 276 kts 237°
2026-05-06 19:26 51.13576 0.69888 9348 ft 278 kts 237°
2026-05-06 19:27 51.12489 0.67372 8913 ft 274 kts 237°
2026-05-06 19:27 51.11413 0.64886 8437 ft 273 kts 237°
2026-05-06 19:27 51.10337 0.62393 8009 ft 269 kts 237°
2026-05-06 19:27 51.09296 0.59989 8001 ft 267 kts 237°
2026-05-06 19:28 51.08299 0.57475 8002 ft 264 kts 249°
2026-05-06 19:28 51.07848 0.54609 8006 ft 270 kts 262°
2026-05-06 19:28 51.07642 0.51686 8010 ft 268 kts 265°
2026-05-06 19:28 51.07480 0.48723 8006 ft 267 kts 265°
2026-05-06 19:29 51.07325 0.45762 8008 ft 269 kts 265°
2026-05-06 19:29 51.07173 0.42855 8011 ft 269 kts 265°
2026-05-06 19:29 51.07020 0.39880 8006 ft 268 kts 265°
2026-05-06 19:29 51.06869 0.36933 8009 ft 268 kts 265°
2026-05-06 19:30 51.06717 0.33978 8008 ft 268 kts 265°
2026-05-06 19:30 51.06564 0.31024 8005 ft 269 kts 265°
2026-05-06 19:30 51.06411 0.28060 8007 ft 269 kts 265°
2026-05-06 19:30 51.06257 0.25089 8009 ft 268 kts 265°
2026-05-06 19:31 51.06103 0.22127 8009 ft 269 kts 265°
2026-05-06 19:31 51.05951 0.19217 8009 ft 265 kts 265°
2026-05-06 19:31 51.05662 0.13714 8002 ft 243 kts 265°
2026-05-06 19:32 51.05523 0.11088 7995 ft 237 kts 265°
2026-05-06 19:32 51.05384 0.08462 8003 ft 236 kts 265°
2026-05-06 19:32 51.05244 0.05864 8006 ft 236 kts 265°
2026-05-06 19:32 51.05105 0.03258 8008 ft 237 kts 265°
2026-05-06 19:33 51.04968 0.00660 8009 ft 236 kts 265°
2026-05-06 19:33 51.04835 -0.01834 8008 ft 236 kts 265°
2026-05-06 19:33 51.04696 -0.04428 8012 ft 236 kts 265°
2026-05-06 19:33 51.04557 -0.07023 8006 ft 236 kts 265°
2026-05-06 19:34 51.04418 -0.09572 7743 ft 231 kts 265°
2026-05-06 19:34 51.04277 -0.12133 7274 ft 232 kts 265°
2026-05-06 19:34 51.04136 -0.14666 6847 ft 230 kts 265°
2026-05-06 19:34 51.03998 -0.17193 6407 ft 228 kts 265°
2026-05-06 19:35 51.03861 -0.19670 6005 ft 225 kts 265°
2026-05-06 19:35 51.03729 -0.22090 5999 ft 223 kts 265°
2026-05-06 19:35 51.03593 -0.24549 5842 ft 220 kts 265°
2026-05-06 19:35 51.03458 -0.27011 5249 ft 226 kts 265°
2026-05-06 19:36 51.03324 -0.29472 4980 ft 217 kts 265°
2026-05-06 19:36 51.03192 -0.31884 5005 ft 227 kts 265°
2026-05-06 19:36 51.03057 -0.34317 5003 ft 222 kts 265°
2026-05-06 19:36 51.02923 -0.36736 5000 ft 211 kts 265°
2026-05-06 19:37 51.02801 -0.38953 4992 ft 192 kts 265°
2026-05-06 19:37 51.02689 -0.40965 4939 ft 176 kts 265°
2026-05-06 19:37 51.02577 -0.42909 4479 ft 179 kts 265°
2026-05-06 19:37 51.02503 -0.44215 4192 ft 179 kts 265°
2026-05-06 19:38 51.02356 -0.46833 3675 ft 177 kts 266°
2026-05-06 19:38 51.02660 -0.48679 3244 ft 179 kts 306°
2026-05-06 19:38 51.03741 -0.49627 2987 ft 177 kts 341°
2026-05-06 19:38 51.04972 -0.50138 3002 ft 186 kts 341°
2026-05-06 19:39 51.06185 -0.50692 3005 ft 186 kts 340°
2026-05-06 19:39 51.07401 -0.50743 2982 ft 189 kts 17°
2026-05-06 19:39 51.08511 -0.49548 2988 ft 199 kts 45°
2026-05-06 19:39 51.09335 -0.47788 2999 ft 204 kts 53°
2026-05-06 19:40 51.10127 -0.45970 2997 ft 200 kts 52°
2026-05-06 19:40 51.10936 -0.44171 2996 ft 197 kts 52°
2026-05-06 19:40 51.11633 -0.42246 2895 ft 203 kts 71°
2026-05-06 19:40 51.11913 -0.40148 2741 ft 186 kts 80°
2026-05-06 19:41 51.12152 -0.38119 2584 ft 184 kts 77°
2026-05-06 19:41 51.12435 -0.36166 2413 ft 182 kts 76°
2026-05-06 19:41 51.12710 -0.34219 2235 ft 179 kts 77°
2026-05-06 19:41 51.12977 -0.32285 2000 ft 178 kts 77°
2026-05-06 19:42 51.13240 -0.30390 1744 ft 169 kts 77°
2026-05-06 19:42 51.13487 -0.28604 1478 ft 161 kts 77°
2026-05-06 19:42 51.13720 -0.26921 1250 ft 154 kts 77°
2026-05-06 19:42 51.13908 -0.25558 1029 ft 152 kts 77°
2026-05-06 19:43 51.14117 -0.24001 758 ft 151 kts 77°
2026-05-06 19:43 51.14257 -0.22978 584 ft 150 kts 77°
2026-05-06 19:43 51.14489 -0.21374 334 ft 147 kts 77°
2026-05-06 19:43 51.14635 -0.20325 213 ft 144 kts 78°
2026-05-06 19:44 51.14797 -0.19135 210 ft 78 kts 77°
2026-05-06 19:44 51.14884 -0.18613 209 ft 29 kts 57°
2026-05-06 19:44 51.14997 -0.18392 204 ft 22 kts 53°
2026-05-06 19:44 51.15082 -0.18220 211 ft 17 kts 49°
2026-05-06 19:45 51.15155 -0.18191 207 ft 0 kts 349°
2026-05-06 19:45 51.15167 -0.18196 207 ft 5 kts 345°
2026-05-06 19:46 51.15223 -0.18216 204 ft 11 kts 348°
2026-05-06 19:46 51.15320 -0.18249 208 ft 16 kts 348°
2026-05-06 19:46 51.15417 -0.18284 208 ft 13 kts 347°
2026-05-06 19:46 51.15514 -0.18317 209 ft 14 kts 348°
2026-05-06 19:47 51.15596 -0.18346 211 ft 13 kts 347°
2026-05-06 19:47 51.15653 -0.18269 209 ft 10 kts 79°
2026-05-06 19:47 51.15667 -0.18169 212 ft 10 kts 78°
2026-05-06 19:47 51.15681 -0.18064 209 ft 8 kts 78°
2026-05-06 19:48 51.15693 -0.17975 216 ft 11 kts 78°
2026-05-06 19:48 51.15727 -0.17720 204 ft 0 kts 78°
2026-05-06 19:48 51.15733 -0.17681 208 ft 8 kts 77°
2026-05-06 19:48 51.15752 -0.17551 210 ft 16 kts 77°
2026-05-06 19:49 51.15775 -0.17392 209 ft 14 kts 77°
2026-05-06 19:49 51.15794 -0.17250 209 ft 13 kts 78°
2026-05-06 19:49 51.15813 -0.17119 208 ft 10 kts 72°
2026-05-06 19:49 51.15878 -0.17063 205 ft 13 kts 13°
2026-05-06 19:50 51.15945 -0.17001 214 ft 9 kts 20°
2026-05-06 19:50 51.15992 -0.17024 214 ft 5 kts 332°
2026-05-06 19:50 51.16020 -0.17046 213 ft 3 kts 334°
2026-05-06 19:50 51.16022 -0.17047 212 ft 0 kts 334°